Temp
-1 -1 -1 -0 -0 0 -0 -0 -0 -1 -1 -1 -1 -1 0 2 3 4 3 3 3 6 9 11 12 13 14 14 11 13 18 21 22 21 22 23 24 26 25 25 26 25 25 25 26 25 25 28 28 26 24 24 24 20
-1 -1 -1 -1 -1 -0 -0 -1 -1 -1 -1 -0 -0 -0 0 0 1 3 3 3 3 3 8 10 12 11 11 12 14 13 14 16 19 20 21 23 22 23 20 23 24 21 22 24 23 22 23 24 23 23 23 23 22 20
-1 -1 -1 -1 -2 -1 -1 -1 -0 0 1 1 2 2 1 0 1 1 0 1 2 5 9 12 14 15 13 13 13 14 14 12 12 16 19 20 18 17 19 16 18 18 17 18 21 22 19 22 22 22 22 22 20 20
-1 -1 -1 -2 -2 -1 -0 0 1 2 2 3 3 3 3 3 3 2 -0 1 1 5 10 15 14 14 14 13 13 14 14 14 15 17 18 19 18 17 19 18 19 19 18 20 18 17 15 19 22 21 21 20 20 19
-1 -1 -2 -2 -1 -2 -1 -0 1 2 2 3 4 4 4 3 4 4 1 1 1 3 7 10 12 14 14 13 13 13 14 14 16 18 19 19 19 18 19 19 20 20 20 17 21 17 15 17 20 20 19 19 18 17
-1 -1 -1 -1 -1 -1 -0 0 1 2 2 3 3 4 4 4 4 1 3 3 3 3 4 11 14 14 13 13 13 13 14 14 15 17 18 18 17 17 18 19 20 16 14 15 16 16 15 15 16 14 17 17 16 16
-1 -1 -1 -2 -2 -1 -0 1 1 2 3 3 4 4 4 4 4 2 3 3 3 3 5 9 14 14 14 14 14 14 14 15 15 17 17 17 17 16 18 18 19 18 16 14 13 15 15 16 15 15 16 15 15 15
-1 -1 -1 -1 -2 -1 -0 1 2 2 3 4 4 4 4 4 3 3 3 4 3 3 4 8 13 14 14 15 16 15 16 15 16 17 17 17 17 16 17 18 18 18 16 16 15 13 15 17 16 16 16 15 14 14
-1 -1 -1 -1 -1 -1 -0 1 2 3 4 4 4 4 4 3 3 4 4 4 4 3 6 9 12 10 14 14 14 15 16 17 17 17 18 17 17 14 17 17 17 17 17 17 17 17 13 14 13 16 16 15 14 13
-1 -1 -1 -1 -1 -1 -0 1 2 3 4 4 4 3 5 5 5 5 3 3 4 5 6 9 12 13 13 14 13 13 16 16 16 18 18 18 18 18 17 17 16 16 16 16 19 19 18 16 14 16 15 14 13 12
-1 -1 -1 -1 -0 -0 0 1 2 3 4 5 6 6 5 6 5 5 5 5 7 8 8 10 11 11 12 12 13 12 14 16 15 17 18 17 18 18 17 18 17 16 16 17 18 18 19 17 16 15 14 13 12 11
-1 -1 -1 -0 -0 0 0 1 1 1 1 1 3 4 5 6 6 7 9 10 10 10 11 10 10 10 10 10 11 12 13 15 14 18 17 17 19 19 19 18 18 17 17 16 18 18 18 18 15 14 14 12 11 12
-1 -0 -0 -0 0 0 0 1 1 2 2 2 2 3 7 7 5 8 9 11 11 11 11 10 10 9 9 10 10 11 12 14 17 16 17 18 19 19 19 19 18 17 17 18 18 18 18 16 15 13 12 12 11 11
-1 -0 -0 0 0 1 1 1 1 2 3 6 5 3 7 8 9 11 11 11 11 11 11 11 11 9 9 9 11 10 13 14 14 15 16 12 13 14 16 18 19 18 18 18 18 18 15 15 14 13 11 11 10 10
-1 -1 0 1 1 1 1 1 1 1 3 7 8 5 10 11 11 10 10 10 10 11 10 11 10 10 11 10 11 12 13 13 15 13 12 10 11 12 14 15 15 18 17 18 17 15 14 12 10 10 10 10 9 8
-2 -1 1 1 1 1 1 2 2 1 5 6 7 10 12 12 10 10 9 10 9 10 10 9 8 7 9 11 10 11 13 11 9 11 11 11 10 12 12 13 15 15 14 14 13 11 10 9 10 10 9 8 7 7
-2 -1 -1 0 1 1 1 2 4 4 5 6 9 11 11 12 10 9 8 9 9 10 9 7 6 6 7 10 12 12 10 9 10 11 10 10 10 11 11 11 11 11 11 10 9 9 9 10 9 8 6 6 7 8
-1 -1 -1 0 1 0 2 2 5 5 6 7 9 11 11 11 10 10 9 9 9 8 7 6 5 7 8 9 9 8 8 9 10 10 10 10 11 11 10 9 9 10 9 9 9 9 8 7 6 6 6 6 6 6
-1 -1 -1 0 1 1 4 4 5 6 7 9 10 10 11 11 9 7 7 7 6 5 5 5 6 8 8 8 8 7 7 7 7 8 8 9 10 10 9 9 8 9 9 8 8 7 6 6 6 6 6 6 7 7
-1 -1 -0 1 1 2 4 4 4 6 7 9 9 10 9 7 5 5 5 5 5 5 5 6 7 7 6 6 6 6 6 6 7 7 8 9 8 8 8 8 7 7 6 6 5 5 6 6 6 7 7 7 7 6
-1 -1 0 1 1 3 4 6 7 7 8 9 8 6 4 3 4 4 5 5 6 6 6 6 6 6 6 6 6 6 7 8 8 8 8 8 7 7 7 6 6 6 6 6 6 6 6 6 6 7 6 7 7 8
-0 0 1 1 3 3 4 5 6 6 6 7 4 2 2 3 4 4 5 5 5 5 5 5 5 5 5 5 7 7 7 7 8 8 7 7 6 6 6 6 6 6 6 6 6 6 6 7 7 7 7 8 8 8
1 1 3 3 3 3 3 5 4 4 4 3 1 2 3 4 4 4 4 4 4 4 5 5 5 5 5 6 6 7 7 7 7 7 6 6 6 6 6 6 6 7 7 6 6 7 7 7 7 8 8 8 8 8
2 3 3 4 4 3 4 4 3 2 1 1 2 4 3 4 4 3 3 2 3 3 4 5 5 5 5 5 6 6 6 7 6 6 6 7 6 6 6 6 7 7 7 7 7 7 7 7 7 8 8 8 8 8
2 1 3 1 3 3 3 3 2 2 2 3 4 4 4 4 4 3 2 1 3 3 4 5 6 6 5 6 6 6 6 7 7 6 6 7 6 6 6 7 7 7 7 8 7 7 7 7 7 7 8 8 7 7
2 2 2 3 2 2 2 3 2 2 3 5 5 6 5 4 3 3 1 1 3 4 5 6 6 7 7 7 6 6 6 7 7 6 6 7 7 7 6 7 7 6 7 7 7 7 7 7 7 6 6 6 6 6
2 2 2 1 1 1 1 1 1 1 6 7 8 7 6 4 3 2 2 2 3 5 6 8 9 9 9 9 8 8 8 7 7 7 7 7 7 7 7 7 7 7 7 7 6 6 6 6 7 7 7 7 7 6
0 0 1 1 0 0 2 3 5 7 8 9 8 6 6 5 4 3 3 4 6 7 8 9 10 10 10 10 10 10 9 9 9 9 8 8 8 7 7 7 8 7 7 7 8 7 7 7 7 7 7 7 7 7
1 2 1 1 3 3 7 6 7 8 8 8 8 8 7 6 6 5 6 7 9 9 10 12 11 11 11 11 11 11 11 10 10 10 10 9 9 8 8 8 8 7 7 7 7 7 7 6 6 6 7 7 7 7
5 4 6 6 6 7 7 7 8 8 9 9 9 8 8 8 8 8 9 11 11 11 12 12 12 11 11 10 10 10 10 10 10 10 10 10 9 9 9 9 8 8 8 8 7 7 7 7 7 7 7 8 7 6
6 7 7 7 7 7 8 9 9 9 9 9 10 10 10 9 9 10 11 11 11 11 11 11 11 11 11 10 10 10 9 9 8 9 9 9 9 9 9 8 8 8 8 8 8 8 8 8 8 8 8 7 7 6
7 8 9 9 8 9 10 10 11 10 10 10 11 10 10 11 10 10 11 11 11 11 11 11 11 11 11 10 9 9 9 8 8 8 8 8 8 8 9 9 9 8 8 8 9 9 9 9 8 8 7 7 7 6
10 10 9 9 9 10 11 11 11 11 11 11 10 11 11 10 10 10 10 11 11 11 11 10 10 10 10 10 9 9 8 8 8 7 7 7 7 7 7 8 7 7 7 7 8 8 8 7 6 6 6 5 5 4
Height
1532 1531 1529 1526 1524 1522 1519 1518 1516 1514 1513 1511 1508 1506 1503 1500 1498 1497 1498 1496 1496 1491 1479 1478 1477 1476 1473 1472 1472 1467 1455 1446 1442 1447 1442 1436 1431 1421 1423 1419 1422 1430 1435 1439 1438 1444 1451 1423 1424 1435 1440 1440 1441 1447
1530 1528 1527 1524 1522 1520 1518 1516 1515 1513 1511 1508 1506 1504 1502 1499 1497 1496 1499 1497 1496 1493 1478 1473 1470 1468 1471 1475 1475 1468 1466 1460 1450 1444 1440 1433 1436 1431 1440 1436 1427 1446 1439 1437 1442 1443 1432 1431 1432 1437 1439 1442 1446 1451
1527 1526 1524 1522 1520 1518 1516 1515 1512 1510 1508 1506 1503 1502 1499 1497 1496 1495 1494 1493 1491 1487 1474 1469 1465 1461 1467 1469 1469 1470 1467 1468 1464 1460 1453 1447 1449 1452 1448 1456 1451 1452 1452 1456 1448 1443 1443 1441 1439 1437 1442 1446 1450 1454
1524 1522 1521 1519 1518 1516 1514 1512 1509 1507 1505 1503 1501 1499 1497 1495 1494 1492 1493 1493 1492 1490 1478 1459 1462 1463 1464 1464 1464 1465 1465 1465 1463 1459 1454 1450 1454 1458 1452 1456 1453 1451 1453 1451 1452 1451 1451 1443 1442 1439 1445 1450 1453 1457
1521 1519 1518 1517 1515 1514 1511 1509 1507 1505 1503 1501 1499 1497 1495 1493 1492 1491 1491 1491 1491 1495 1484 1470 1464 1460 1461 1462 1463 1462 1461 1463 1460 1453 1451 1452 1450 1453 1453 1453 1447 1448 1451 1455 1446 1449 1451 1451 1445 1451 1451 1455 1458 1461
1517 1516 1516 1515 1513 1511 1509 1507 1505 1503 1501 1499 1497 1495 1492 1491 1491 1492 1494 1493 1494 1494 1491 1473 1460 1459 1460 1461 1461 1462 1462 1462 1461 1455 1455 1454 1455 1461 1455 1450 1452 1455 1459 1461 1456 1453 1452 1452 1454 1461 1455 1461 1463 1464
1514 1513 1513 1512 1511 1509 1507 1505 1503 1501 1498 1496 1494 1492 1491 1491 1491 1495 1494 1494 1493 1493 1492 1479 1460 1457 1458 1458 1458 1458 1459 1458 1458 1455 1455 1456 1456 1458 1454 1452 1450 1453 1458 1459 1458 1457 1457 1457 1456 1462 1464 1461 1463 1466
1510 1510 1510 1510 1509 1507 1505 1503 1501 1498 1496 1493 1492 1491 1490 1490 1492 1492 1492 1491 1492 1493 1491 1482 1462 1457 1456 1456 1452 1454 1453 1454 1454 1452 1452 1454 1453 1457 1449 1449 1450 1451 1455 1453 1454 1456 1458 1459 1461 1458 1463 1467 1467 1470
1507 1507 1507 1507 1506 1504 1502 1500 1498 1496 1494 1493 1492 1492 1492 1491 1492 1492 1491 1491 1491 1495 1488 1478 1465 1467 1456 1455 1455 1454 1449 1445 1445 1446 1446 1448 1446 1455 1447 1448 1448 1450 1452 1449 1448 1452 1458 1454 1459 1460 1463 1466 1469 1473
1503 1504 1504 1504 1503 1502 1500 1498 1496 1495 1494 1493 1493 1493 1491 1492 1491 1492 1491 1491 1490 1488 1487 1477 1467 1463 1462 1458 1457 1459 1449 1444 1440 1436 1436 1438 1436 1437 1441 1444 1445 1447 1448 1445 1445 1448 1450 1457 1452 1459 1462 1467 1468 1471
1500 1500 1501 1501 1501 1500 1498 1497 1496 1495 1494 1494 1492 1491 1492 1491 1492 1491 1489 1488 1483 1480 1478 1474 1470 1468 1465 1464 1460 1460 1454 1444 1439 1429 1427 1429 1425 1428 1433 1435 1439 1442 1444 1443 1444 1446 1446 1450 1453 1455 1460 1464 1468 1473
1496 1497 1498 1499 1499 1498 1497 1496 1495 1495 1495 1493 1492 1491 1492 1492 1490 1488 1480 1477 1474 1472 1470 1470 1471 1470 1468 1467 1463 1458 1454 1443 1438 1422 1421 1420 1417 1417 1421 1425 1431 1435 1440 1443 1443 1445 1447 1448 1449 1455 1461 1467 1471 1474
1492 1494 1495 1496 1497 1497 1496 1495 1494 1493 1492 1494 1494 1493 1489 1488 1488 1479 1473 1465 1467 1468 1468 1470 1470 1469 1468 1466 1463 1458 1450 1440 1429 1427 1419 1411 1411 1414 1417 1418 1424 1430 1434 1437 1440 1442 1445 1448 1453 1458 1460 1462 1469 1473
1489 1491 1493 1494 1495 1495 1495 1494 1493 1492 1491 1491 1492 1493 1487 1481 1478 1469 1468 1467 1468 1468 1468 1467 1467 1467 1464 1464 1457 1455 1443 1439 1433 1426 1418 1427 1426 1419 1417 1417 1418 1423 1427 1431 1435 1439 1442 1446 1453 1456 1458 1461 1468 1473
1486 1488 1490 1491 1493 1493 1493 1493 1493 1492 1493 1489 1484 1486 1473 1469 1471 1471 1472 1470 1469 1469 1469 1467 1466 1465 1460 1458 1454 1450 1442 1433 1425 1428 1433 1432 1429 1429 1424 1420 1419 1421 1426 1426 1430 1435 1443 1447 1453 1456 1458 1463 1468 1472
1484 1486 1488 1489 1491 1491 1492 1492 1492 1493 1491 1488 1485 1475 1466 1466 1472 1472 1473 1471 1471 1469 1469 1469 1469 1468 1461 1454 1451 1446 1435 1439 1443 1439 1436 1434 1431 1425 1425 1427 1423 1423 1426 1430 1433 1438 1442 1446 1452 1455 1461 1465 1469 1474
1482 1485 1486 1488 1490 1491 1491 1491 1493 1492 1490 1486 1476 1471 1469 1467 1472 1473 1473 1472 1471 1470 1470 1473 1473 1470 1466 1454 1440 1438 1442 1446 1441 1439 1436 1434 1432 1431 1428 1427 1427 1428 1430 1432 1436 1442 1444 1449 1454 1459 1463 1468 1472 1477
1482 1483 1485 1487 1489 1491 1493 1492 1491 1490 1487 1482 1476 1469 1468 1469 1471 1472 1473 1472 1472 1471 1472 1473 1471 1466 1460 1454 1449 1450 1448 1445 1442 1439 1436 1432 1428 1427 1428 1429 1430 1432 1434 1438 1441 1445 1449 1454 1459 1463 1467 1471 1477 1479
1481 1483 1485 1487 1489 1490 1491 1492 1491 1486 1481 1475 1473 1472 1470 1469 1472 1473 1473 1473 1472 1472 1472 1470 1466 1459 1455 1453 1452 1449 1446 1443 1440 1437 1433 1430 1428 1426 1429 1432 1434 1435 1438 1442 1446 1451 1456 1459 1463 1468 1472 1477 1482 1488
1482 1484 1486 1488 1489 1491 1491 1491 1490 1487 1481 1477 1474 1472 1473 1475 1476 1473 1472 1470 1469 1469 1468 1465 1460 1458 1456 1452 1449 1445 1440 1436 1433 1432 1430 1430 1431 1429 1432 1434 1436 1440 1444 1448 1453 1456 1462 1468 1474 1478 1482 1486 1490 1494
1484 1486 1488 1489 1491 1492 1490 1487 1485 1483 1480 1477 1475 1478 1480 1476 1474 1472 1471 1470 1468 1466 1464 1461 1459 1456 1452 1447 1443 1439 1434 1431 1429 1430 1431 1433 1437 1437 1440 1443 1446 1449 1452 1459 1464 1470 1474 1478 1481 1485 1487 1491 1495 1498
1487 1488 1491 1491 1492 1492 1491 1488 1486 1485 1484 1480 1482 1483 1480 1478 1476 1475 1474 1471 1469 1468 1465 1460 1457 1454 1450 1446 1442 1439 1437 1436 1436 1436 1438 1440 1443 1446 1450 1455 1458 1462 1466 1470 1474 1477 1481 1485 1489 1490 1493 1496 1498 1500
1489 1489 1492 1492 1492 1492 1490 1487 1487 1487 1487 1486 1485 1483 1481 1479 1478 1477 1477 1478 1474 1469 1462 1460 1457 1454 1451 1448 1445 1443 1443 1443 1442 1444 1446 1450 1454 1457 1460 1464 1468 1470 1473 1478 1481 1484 1488 1491 1493 1495 1497 1498 1501 1503
1491 1492 1492 1490 1490 1490 1489 1488 1488 1489 1488 1487 1485 1483 1484 1483 1484 1484 1485 1482 1478 1471 1465 1463 1461 1458 1455 1453 1452 1451 1452 1451 1450 1453 1456 1459 1462 1467 1470 1474 1477 1480 1482 1485 1488 1491 1494 1496 1498 1499 1501 1503 1505 1506
1495 1495 1494 1492 1491 1491 1491 1490 1490 1489 1488 1486 1485 1484 1486 1487 1487 1491 1492 1488 1481 1476 1472 1470 1468 1465 1464 1462 1461 1461 1462 1462 1462 1464 1467 1469 1472 1475 1479 1482 1484 1487 1489 1491 1494 1496 1498 1500 1502 1504 1506 1507 1508 1508
1494 1494 1494 1492 1493 1492 1491 1489 1489 1488 1487 1485 1486 1486 1488 1491 1494 1499 1500 1495 1490 1486 1483 1481 1478 1477 1475 1475 1474 1473 1474 1474 1474 1474 1477 1480 1482 1483 1486 1489 1492 1494 1495 1496 1498 1500 1501 1504 1506 1507 1507 1508 1508 1508
1494 1494 1494 1494 1493 1493 1492 1490 1489 1489 1484 1482 1483 1488 1493 1497 1503 1506 1504 1500 1496 1494 1490 1487 1486 1487 1486 1485 1485 1485 1485 1485 1485 1486 1487 1489 1491 1493 1495 1496 1497 1499 1499 1501 1503 1504 1505 1507 1508 1509 1510 1510 1510 1510
1495 1494 1494 1494 1493 1492 1491 1489 1487 1486 1483 1482 1487 1494 1496 1501 1507 1506 1505 1503 1499 1497 1495 1494 1495 1493 1492 1492 1492 1492 1493 1494 1494 1495 1496 1497 1498 1499 1500 1500 1501 1502 1503 1505 1507 1508 1509 1509 1510 1510 1510 1510 1510 1510
1494 1493 1493 1492 1492 1492 1490 1491 1491 1491 1491 1490 1492 1495 1500 1502 1503 1503 1504 1504 1504 1502 1498 1498 1498 1498 1498 1498 1497 1498 1498 1499 1500 1500 1501 1502 1503 1505 1505 1505 1506 1507 1507 1508 1508 1508 1509 1509 1510 1510 1510 1510 1509 1508
1494 1494 1493 1493 1493 1495 1496 1497 1498 1498 1498 1499 1499 1500 1502 1503 1504 1503 1504 1505 1506 1505 1504 1503 1503 1503 1504 1504 1505 1505 1505 1505 1505 1506 1506 1507 1508 1509 1509 1510 1510 1510 1511 1511 1511 1510 1510 1510 1509 1509 1509 1509 1509 1507
1499 1498 1498 1499 1501 1503 1502 1502 1502 1503 1504 1504 1505 1504 1505 1508 1507 1508 1508 1509 1509 1508 1508 1509 1509 1509 1509 1509 1510 1510 1511 1512 1511 1511 1511 1512 1512 1513 1513 1513 1513 1513 1513 1513 1513 1513 1512 1512 1511 1510 1509 1508 1507 1506
1506 1504 1503 1503 1505 1507 1506 1505 1506 1508 1510 1509 1509 1511 1510 1511 1513 1514 1513 1513 1513 1513 1514 1514 1514 1515 1515 1514 1515 1516 1516 1516 1515 1515 1514 1515 1515 1515 1516 1515 1515 1515 1514 1514 1513 1512 1511 1510 1509 1508 1506 1506 1504 1503
1506 1507 1508 1509 1510 1509 1510 1510 1511 1512 1513 1514 1515 1515 1515 1516 1518 1519 1519 1518 1519 1518 1518 1519 1519 1519 1519 1519 1519 1518 1518 1517 1516 1516 1517 1517 1517 1516 1516 1516 1515 1515 1515 1514 1513 1512 1511 1508 1507 1505 1504 1502 1500 1498
Wind_Speed
13 14 14 17 16 15 14 14 14 14 14 14 14 14 15 13 11 6 5 10 4 10 23 16 15 12 10 4 4 11 9 8 7 11 12 11 12 12 12 13 17 15 14 13 12 16 20 2 7 6 9 8 17 21
13 13 15 18 15 13 12 13 14 14 15 14 13 14 14 13 12 7 2 7 9 10 17 19 22 21 17 9 8 5 10 13 8 6 3 4 7 5 10 6 12 7 6 7 3 3 8 10 15 13 13 14 16 18
14 13 17 16 15 12 14 14 15 15 13 13 13 13 13 13 12 9 9 11 11 14 23 20 16 8 8 11 11 10 1 7 13 7 5 4 3 7 2 5 4 3 10 5 5 3 7 5 11 10 13 14 18 16
15 14 12 13 12 13 13 13 14 13 13 12 13 13 14 12 11 11 8 9 7 10 6 4 4 11 9 8 8 14 13 10 12 11 7 5 3 2 6 3 3 3 2 4 5 9 13 14 8 14 13 14 14 14
15 11 12 11 10 13 13 13 14 14 14 13 13 12 13 12 8 8 8 8 4 3 7 15 17 13 10 9 11 10 10 10 13 12 6 6 6 2 5 9 5 7 3 4 7 12 21 8 8 7 13 14 15 16
13 11 11 9 10 12 13 13 13 13 13 13 13 13 13 8 4 5 2 1 3 4 6 4 7 8 7 8 10 11 11 11 10 11 6 9 1 2 5 8 13 15 16 11 6 13 12 12 13 9 14 14 14 14
13 11 9 9 10 12 13 13 13 14 13 13 13 10 7 3 5 3 0 3 4 3 4 7 5 4 6 6 8 10 11 13 13 16 12 11 7 3 6 10 13 5 5 4 5 2 10 9 15 13 11 13 14 13
11 9 9 8 11 12 13 13 13 13 13 12 6 2 2 3 3 3 6 7 5 5 4 4 3 12 2 7 9 9 13 14 17 17 17 15 9 6 8 8 11 8 3 6 7 8 8 11 11 16 13 11 12 13
10 10 9 9 11 12 13 12 11 10 9 4 2 4 3 2 3 6 4 3 3 4 6 4 4 3 8 10 6 10 9 8 11 10 15 12 11 5 9 16 13 15 12 12 7 3 8 19 14 16 15 17 13 12
11 10 10 10 10 11 12 11 8 5 5 2 2 3 3 3 2 2 1 3 3 5 6 7 10 5 12 8 3 5 6 5 8 12 19 13 12 25 22 20 12 12 10 10 10 10 11 13 16 17 17 15 13 14
11 10 9 9 9 9 10 9 4 3 7 4 4 2 3 5 2 4 4 4 5 4 6 6 7 7 10 6 4 4 3 3 8 11 11 12 12 17 30 29 21 17 13 14 12 10 12 15 16 13 11 14 13 13
12 11 9 9 8 9 9 7 5 6 5 4 5 4 2 4 5 4 3 4 5 2 5 4 2 4 5 3 5 3 4 3 5 7 5 14 12 20 21 29 30 27 25 27 12 8 9 7 19 16 16 17 15 14
12 12 10 9 7 7 7 6 5 6 1 1 2 2 4 3 1 4 3 3 2 1 1 2 3 3 3 4 5 3 4 6 9 4 7 10 9 11 15 17 24 27 26 22 19 13 10 13 17 18 19 16 14 16
13 12 12 8 5 5 5 5 4 2 2 4 4 2 4 4 4 3 4 5 2 2 7 7 8 3 4 3 3 4 4 4 3 4 5 6 15 18 18 15 15 30 27 25 21 14 16 18 14 15 17 20 22 20
13 11 11 7 5 4 4 2 3 1 4 3 4 3 7 9 3 7 8 9 8 5 10 10 10 5 4 4 3 3 4 4 2 4 4 12 16 11 12 8 7 8 10 11 18 18 18 19 18 21 20 21 25 22
13 10 9 7 5 3 3 3 2 3 3 3 4 7 9 4 4 3 4 5 6 9 10 2 4 3 3 4 3 6 4 4 4 6 13 12 13 14 14 9 3 7 12 16 19 20 20 17 17 18 21 25 27 31
15 7 9 6 5 3 1 3 3 3 3 4 7 9 9 5 3 5 5 8 7 9 2 2 2 3 5 4 3 2 4 5 17 15 16 14 12 12 8 6 10 15 17 19 20 17 16 15 17 23 30 31 32 32
11 11 9 8 7 1 1 1 3 3 5 8 11 9 8 5 2 3 3 6 7 4 1 2 4 4 3 3 3 5 17 23 24 21 20 17 12 6 9 12 13 14 17 16 14 15 18 24 30 33 33 32 30 26
10 8 9 10 9 4 3 2 3 4 6 9 6 7 7 5 7 9 9 8 5 7 3 4 4 3 2 3 14 20 21 22 22 18 18 11 4 9 11 12 14 14 14 15 21 27 31 32 35 33 29 26 29 32
13 9 11 11 10 1 1 2 2 5 5 5 8 5 8 6 11 12 10 8 6 3 5 3 3 8 11 21 25 26 29 25 23 16 7 9 9 16 18 22 30 32 33 32 34 33 35 33 30 32 33 31 27 21
11 7 11 9 2 2 2 3 3 4 6 6 11 9 6 9 6 7 7 10 2 2 3 4 15 24 19 19 18 15 7 6 11 18 22 23 20 22 28 34 33 31 32 35 39 35 32 25 25 24 18 14 13 12
9 12 6 2 0 1 3 3 4 8 5 6 6 9 4 5 6 6 10 6 5 8 12 17 14 7 7 7 10 8 12 13 16 21 24 26 33 35 35 37 38 32 29 31 30 21 20 20 16 11 14 15 11 8
11 6 3 1 2 2 5 4 2 3 3 5 8 3 2 4 9 7 4 12 8 18 10 8 6 11 14 12 11 16 17 22 27 30 34 34 34 35 32 30 28 24 29 27 23 24 19 14 13 15 12 13 11 11
3 1 1 1 1 2 4 1 2 3 3 3 2 2 3 5 7 7 3 9 22 22 19 19 21 25 26 23 22 24 26 29 33 34 34 34 30 27 27 24 20 19 19 20 20 19 16 12 12 14 14 11 9 7
1 2 2 2 2 2 2 3 2 1 1 2 0 1 3 4 2 3 4 14 25 27 28 35 36 37 35 34 29 22 24 27 28 26 22 22 25 25 22 19 19 18 17 15 16 14 14 10 9 8 7 7 5 4
2 1 1 2 2 2 2 2 2 2 2 0 2 3 4 4 4 4 6 17 19 24 24 26 28 28 29 29 33 33 31 29 27 24 25 24 23 26 25 21 16 14 12 7 6 9 10 7 7 5 3 2 5 4
2 1 2 2 1 2 3 3 4 3 2 2 3 3 3 4 4 3 4 9 14 17 20 20 19 19 21 22 22 22 22 23 26 27 24 20 17 17 15 13 12 12 11 9 9 9 9 7 4 3 2 2 3 3
1 2 2 2 2 3 2 2 2 5 4 4 4 3 3 3 2 5 12 16 15 10 9 10 16 17 17 16 16 17 18 18 18 18 18 16 14 13 12 11 14 12 11 11 8 6 5 4 2 1 1 2 3 4
1 1 1 3 2 1 5 6 6 9 20 20 13 6 5 6 10 10 9 7 8 14 11 14 16 17 17 18 18 18 16 15 16 17 17 17 15 14 12 11 11 9 9 7 6 5 6 5 3 3 3 3 5 6
5 1 3 8 5 5 12 15 21 21 22 22 20 19 16 11 9 9 7 9 11 12 13 15 16 17 17 18 18 18 17 16 15 15 15 15 14 12 11 11 10 9 8 7 6 10 11 6 8 8 6 7 9 11
11 23 25 22 19 19 19 20 20 20 20 20 18 18 18 17 14 13 14 14 15 15 15 15 15 15 16 17 16 16 17 16 15 14 13 12 11 11 10 9 8 7 6 6 5 4 6 6 7 9 11 12 12 12
16 16 17 16 17 15 15 17 19 20 18 15 18 20 16 21 19 14 14 14 14 14 14 14 15 16 15 14 14 13 12 11 9 8 11 9 7 6 6 6 5 6 7 7 7 8 9 11 13 13 13 13 14 14
17 18 17 18 14 10 12 11 12 12 15 16 15 13 13 13 11 11 10 10 11 11 10 11 11 10 10 10 9 8 7 9 12 18 17 14 12 6 7 7 7 6 8 9 10 11 13 13 13 14 12 12 11 12
Wind_Direction
307 316 318 326 323 324 325 327 330 330 334 334 336 336 338 338 337 351 276 304 317 285 278 278 294 293 298 354 359 322 288 210 209 221 236 237 244 245 249 259 210 207 213 226 246 238 245 116 166 236 95 101 85 80
312 310 314 324 323 327 332 338 332 322 319 322 329 332 332 334 333 349 337 305 301 272 262 282 285 273 258 259 273 318 322 318 310 341 307 302 312 350 354 251 183 240 321 288 4 356 39 70 93 117 120 114 105 103
309 305 305 315 316 320 316 313 312 315 317 323 327 329 327 325 324 320 300 306 324 282 293 266 264 282 246 249 249 264 206 350 323 3 327 328 21 346 326 28 322 48 46 324 335 48 13 160 120 122 123 117 118 123
309 308 306 307 313 319 321 322 322 322 322 323 322 323 323 322 315 310 299 293 309 300 282 248 185 256 268 252 248 253 269 285 298 292 316 294 302 334 316 86 321 16 325 285 302 320 340 323 129 121 126 129 125 125
305 304 302 307 316 321 322 325 326 329 333 329 324 320 318 315 308 304 293 273 275 314 311 306 303 261 255 254 250 256 256 266 283 293 285 277 304 225 268 302 267 16 318 316 305 46 219 305 105 139 132 128 123 123
298 291 300 308 317 328 329 331 331 330 330 327 323 317 313 304 299 50 324 286 254 265 304 293 323 257 241 243 241 234 229 234 251 272 293 286 284 284 278 258 248 80 31 7 9 47 79 86 94 39 104 119 119 119
288 283 281 297 313 313 322 325 330 330 328 324 322 316 306 269 183 219 200 243 240 292 284 295 312 198 219 227 230 229 226 235 230 246 228 247 264 241 258 262 290 28 74 31 354 358 86 121 133 148 139 126 121 120
275 274 275 290 305 310 316 326 330 329 326 327 335 358 352 161 142 266 270 239 235 274 256 270 277 225 172 243 233 201 216 213 236 241 242 226 237 232 250 268 276 266 283 251 5 295 264 225 194 149 145 141 130 134
268 269 270 285 300 311 317 326 335 333 329 345 122 138 115 139 216 213 260 261 257 252 291 276 294 0 332 352 0 251 254 241 224 223 239 240 227 202 249 255 271 262 261 247 216 359 296 167 200 159 162 158 153 158
259 261 268 281 296 310 319 330 351 24 56 60 172 221 213 144 276 282 305 220 226 210 227 260 296 291 322 334 46 327 266 255 247 238 230 218 237 241 225 245 254 233 247 269 249 240 176 176 171 162 161 166 166 169
252 254 262 276 292 310 321 333 11 51 36 308 256 116 32 337 227 229 217 227 209 226 214 250 284 320 306 316 330 288 287 270 255 252 238 238 232 227 236 234 221 226 237 252 243 249 225 186 181 171 161 167 173 178
246 247 257 271 288 309 321 330 340 13 322 316 277 336 269 206 232 239 223 225 225 225 200 233 244 305 291 292 271 247 255 280 260 276 266 229 243 238 231 222 220 221 230 227 218 217 243 244 165 167 171 169 170 176
242 244 249 262 280 301 316 325 345 351 53 30 341 271 262 233 321 241 226 212 194 210 165 275 291 275 267 245 242 263 244 245 310 273 264 259 330 232 224 231 212 215 229 233 219 214 229 161 161 169 163 176 170 168
233 240 245 251 261 282 307 322 355 42 100 214 187 268 242 196 241 257 320 333 39 288 312 320 311 228 240 237 247 258 251 279 256 238 235 10 344 357 358 232 212 204 214 220 217 202 151 142 153 161 157 171 167 166
227 232 240 230 237 266 299 311 2 89 283 259 253 233 217 212 194 329 324 303 342 321 325 324 300 262 256 252 229 285 253 247 287 12 33 355 318 314 317 332 321 197 220 207 164 139 140 141 147 147 163 177 179 166
217 233 244 231 234 252 285 296 199 227 261 262 259 251 268 81 340 336 308 317 341 321 326 347 355 315 277 268 222 229 256 48 328 326 332 339 332 304 299 276 233 93 109 119 127 138 145 149 158 172 172 171 159 160
204 206 235 217 207 208 72 64 196 219 260 247 244 239 264 303 63 308 308 306 309 310 344 35 278 252 312 252 250 327 24 330 314 335 333 327 319 295 255 165 108 110 116 123 130 134 140 158 166 164 154 152 155 159
188 214 204 176 175 8 192 223 255 229 241 248 259 345 10 336 280 359 321 324 323 6 2 281 295 237 238 279 318 348 328 317 312 320 319 319 307 283 154 138 137 146 135 136 144 149 150 152 151 153 154 155 154 145
175 197 188 165 154 145 189 238 254 271 249 286 293 281 290 346 355 340 315 329 318 295 260 254 252 240 258 298 323 312 302 301 298 300 298 305 157 169 152 153 142 151 154 152 149 145 146 155 148 140 137 144 150 153
169 171 160 160 149 187 223 251 241 271 285 340 300 323 358 338 317 313 315 301 292 215 215 230 255 332 317 309 307 301 299 297 293 286 294 143 143 148 145 143 131 133 130 132 134 137 134 135 142 143 144 147 154 163
123 146 140 140 184 306 283 279 249 285 318 300 14 12 319 330 332 332 339 349 289 298 285 300 327 313 312 304 305 309 316 80 113 121 123 117 124 126 129 126 131 132 130 129 131 134 135 138 149 152 150 157 155 152
139 128 137 108 189 250 268 250 295 321 291 346 15 343 309 313 331 360 344 358 10 322 323 306 321 344 0 35 81 75 90 98 116 124 126 129 117 115 115 116 118 120 130 138 138 135 131 134 144 143 141 143 145 139
116 106 127 148 232 271 263 327 340 342 310 355 336 307 310 356 356 9 47 2 352 356 32 60 49 87 78 91 104 107 103 108 105 112 113 117 119 124 128 129 130 121 123 130 139 142 137 137 122 107 115 114 111 119
45 57 248 278 258 332 326 351 43 343 329 330 301 13 13 7 17 38 20 332 347 26 67 83 74 69 75 77 87 101 107 115 111 114 124 128 130 133 129 120 108 115 122 124 131 130 122 122 131 116 98 88 91 107
289 20 299 318 345 342 299 339 332 314 290 265 12 109 74 38 52 46 356 343 7 34 53 76 71 68 65 69 80 100 111 111 113 114 115 116 119 121 119 112 102 107 115 111 114 115 109 110 120 106 77 88 89 75
42 57 26 45 297 9 339 311 336 323 297 14 63 87 60 51 45 38 358 351 17 45 54 59 61 61 61 71 74 76 80 85 92 108 116 116 121 120 113 103 105 105 111 128 148 158 154 113 113 118 125 33 6 4
322 37 16 360 335 276 276 266 268 268 288 78 77 61 56 60 44 29 29 41 41 49 55 53 53 62 66 71 76 80 81 82 81 89 96 94 91 90 97 101 102 101 104 115 124 119 122 121 117 96 64 29 357 360
284 279 266 309 249 216 268 255 315 15 3 55 79 87 87 84 170 149 99 71 64 49 40 53 60 66 69 75 78 81 82 85 89 94 94 91 91 95 99 103 119 128 127 120 118 115 117 117 111 75 356 350 347 345
264 283 253 258 192 212 31 41 39 69 80 86 91 83 103 127 158 173 187 161 77 40 53 88 80 76 75 74 76 78 81 86 90 91 90 90 88 83 82 84 86 90 99 124 139 157 148 116 87 59 11 2 346 335
37 79 43 49 54 57 87 100 93 95 93 95 99 105 109 117 127 130 127 110 101 89 78 78 79 76 75 74 74 73 72 75 78 81 84 84 85 85 83 82 81 80 81 76 67 53 47 34 1 2 357 347 346 349
92 98 100 101 104 113 114 113 110 108 105 99 95 96 103 108 90 90 92 89 88 84 81 77 69 67 69 70 72 73 73 67 72 74 79 82 83 81 76 71 65 61 55 47 35 14 353 2 348 333 323 321 320 320
107 100 99 101 108 110 113 111 115 111 101 93 95 97 98 90 83 71 72 89 85 78 69 69 67 65 68 75 71 67 69 66 60 64 71 73 77 61 45 30 27 28 19 11 357 345 342 336 337 339 340 336 335 334
125 108 102 98 95 95 98 100 84 96 103 105 112 102 92 89 69 63 73 66 66 67 70 63 63 71 64 58 61 66 67 58 53 48 44 47 51 65 25 4 7 359 353 351 345 342 343 342 343 340 336 330 330 322